Location: Unspecified
(0.0000°N, 0.0000°E)
Time: 03:45:22
(UTC+02:00)

Cosmos 773 Rocket - Visible Passes

Search period start: 25 June 2016 00:00
Search period end: 05 July 2016 00:00
Orbit: 746 x 776 km, 74.1° (Epoch: 23 June)

Date Brightness Start Highest point End Pass type
(mag) Time Alt. Az. Time Alt. Az. Time Alt. Az.
30 Jun 7.0 23:21:05 10° NW 23:21:08 10° NW 23:21:08 10° NW visible
01 Jul 6.1 22:41:42 10° NNW 22:43:25 21° NNW 22:43:25 21° NNW visible
02 Jul 5.3 22:03:01 10° N 22:05:44 28° NNE 22:05:44 28° NNE visible
03 Jul 5.5 21:25:11 10° NNE 21:28:09 20° ENE 21:28:09 20° ENE visible
03 Jul 6.6 23:06:42 10° NW 23:08:19 17° WNW 23:08:19 17° WNW visible
04 Jul 5.1 22:26:44 10° NNW 22:30:47 42° WNW 22:30:47 42° WNW visible
